BRJ107 EBBR-LFMN

Flight info

Callsign BRJ107
Flight time 1h 34m
Altitude 45000
Route ROUSY DCT GTQ DCT POGOL DCT LASAT DCT MOROK DCT GILIR DCT GEVEA/N0490F370 DCT KOGAS DCT MEDAM/N0507F290 DCT VEVAR
Aircraft C750/M-SBDE3FGHRWXY/S

Departure

Time 2026-05-04 15:26
Airport Brussels Airport (EBBR)

Arrival

Time 2026-05-04 17:00
Airport Nice-Côte d'Azur Airport (LFMN)
Time Latitude Longitude Altitude Speed Heading
2026-05-04 15:01 50.89621 4.46739 181 ft 0 kts 183°
2026-05-04 15:01 50.89622 4.46739 181 ft 0 kts 183°
2026-05-04 15:15 50.89620 4.46739 181 ft 1 kts 179°
2026-05-04 15:15 50.89615 4.46741 181 ft 1 kts 163°
2026-05-04 15:16 50.89593 4.46757 181 ft 0 kts 152°
2026-05-04 15:16 50.89592 4.46758 181 ft 0 kts 152°
2026-05-04 15:16 50.89588 4.46801 181 ft 6 kts 77°
2026-05-04 15:17 50.89607 4.46888 181 ft 8 kts 34°
2026-05-04 15:17 50.89666 4.46893 181 ft 0 kts 358°
2026-05-04 15:19 50.89706 4.46892 181 ft 8 kts
2026-05-04 15:19 50.89763 4.46922 181 ft 9 kts 54°
2026-05-04 15:19 50.89816 4.47108 181 ft 13 kts 64°
2026-05-04 15:20 50.89859 4.47254 181 ft 16 kts 66°
2026-05-04 15:20 50.89905 4.47412 181 ft 15 kts 66°
2026-05-04 15:20 50.89947 4.47560 181 ft 14 kts 64°
2026-05-04 15:20 50.90019 4.47588 181 ft 11 kts 332°
2026-05-04 15:21 50.90087 4.47536 181 ft 11 kts 336°
2026-05-04 15:21 50.90157 4.47483 181 ft 11 kts 339°
2026-05-04 15:21 50.90237 4.47647 181 ft 13 kts 65°
2026-05-04 15:22 50.90281 4.47796 181 ft 17 kts 65°
2026-05-04 15:22 50.90337 4.47983 181 ft 21 kts 65°
2026-05-04 15:22 50.90474 4.48465 181 ft 28 kts 65°
2026-05-04 15:23 50.90558 4.48755 181 ft 29 kts 65°
2026-05-04 15:23 50.90640 4.49040 181 ft 27 kts 66°
2026-05-04 15:23 50.90714 4.49303 181 ft 25 kts 65°
2026-05-04 15:23 50.90787 4.49546 181 ft 24 kts 64°
2026-05-04 15:24 50.90926 4.49707 181 ft 11 kts 323°
2026-05-04 15:24 50.90987 4.49528 181 ft 9 kts 267°
2026-05-04 15:25 50.90984 4.49434 182 ft 8 kts 266°
2026-05-04 15:25 50.90975 4.49327 183 ft 11 kts 256°
2026-05-04 15:25 50.90930 4.49153 182 ft 36 kts 246°
2026-05-04 15:26 50.90223 4.46715 605 ft 160 kts 247°
2026-05-04 15:26 50.89723 4.45033 1227 ft 177 kts 246°
2026-05-04 15:26 50.88081 4.41822 2935 ft 208 kts 204°
2026-05-04 15:27 50.86623 4.41581 4199 ft 219 kts 172°
2026-05-04 15:27 50.84454 4.44834 6330 ft 223 kts 116°
2026-05-04 15:28 50.83072 4.49253 8388 ft 231 kts 117°
2026-05-04 15:28 50.82074 4.51379 8877 ft 257 kts 131°
2026-05-04 15:28 50.79491 4.55937 10247 ft 287 kts 131°
2026-05-04 15:29 50.78133 4.58419 10632 ft 310 kts 130°
2026-05-04 15:30 50.71807 4.69811 12691 ft 358 kts 130°
2026-05-04 15:30 50.68261 4.80071 14864 ft 367 kts 105°
2026-05-04 15:31 50.66936 4.87527 15637 ft 353 kts 107°
2026-05-04 15:31 50.66027 4.91253 15757 ft 376 kts 121°
2026-05-04 15:32 50.60560 5.00170 18080 ft 381 kts 137°
2026-05-04 15:32 50.55676 5.03071 19273 ft 384 kts 175°
2026-05-04 15:33 50.50710 5.06292 20545 ft 392 kts 152°
2026-05-04 15:34 50.43279 5.11905 22571 ft 398 kts 160°
2026-05-04 15:34 50.40734 5.13696 23161 ft 403 kts 157°
2026-05-04 15:34 50.35629 5.17534 24309 ft 409 kts 158°
2026-05-04 15:35 50.30441 5.21185 25410 ft 414 kts 158°
2026-05-04 15:35 50.27801 5.23114 26017 ft 415 kts 158°
2026-05-04 15:35 50.25205 5.25000 26543 ft 417 kts 158°
2026-05-04 15:36 50.19886 5.28788 27645 ft 422 kts 159°
2026-05-04 15:36 50.17213 5.30707 28199 ft 425 kts 158°
2026-05-04 15:36 50.14506 5.32651 28752 ft 428 kts 159°
2026-05-04 15:37 50.11785 5.34592 29291 ft 430 kts 159°
2026-05-04 15:37 50.09051 5.36537 29810 ft 433 kts 159°
2026-05-04 15:37 50.06300 5.38498 30290 ft 436 kts 159°
2026-05-04 15:37 50.03569 5.40444 30760 ft 438 kts 159°
2026-05-04 15:38 50.00795 5.42415 31287 ft 438 kts 159°
2026-05-04 15:38 49.98035 5.44374 31963 ft 435 kts 159°
2026-05-04 15:38 49.95289 5.46320 32568 ft 433 kts 159°
2026-05-04 15:38 49.92552 5.48257 33210 ft 431 kts 159°
2026-05-04 15:39 49.89821 5.50188 33879 ft 429 kts 159°
2026-05-04 15:39 49.87112 5.52101 34418 ft 429 kts 159°
2026-05-04 15:39 49.81659 5.55941 35308 ft 431 kts 159°
2026-05-04 15:40 49.78930 5.57862 35792 ft 432 kts 159°
2026-05-04 15:40 49.76183 5.59793 36255 ft 434 kts 159°
2026-05-04 15:40 49.73433 5.61721 36711 ft 433 kts 159°
2026-05-04 15:40 49.70791 5.63584 36977 ft 404 kts 159°
2026-05-04 15:41 49.68282 5.65345 36970 ft 389 kts 160°
2026-05-04 15:41 49.63339 5.68773 36980 ft 398 kts 160°
2026-05-04 15:42 49.58243 5.72341 36987 ft 402 kts 159°
2026-05-04 15:42 49.53144 5.75884 36992 ft 402 kts 160°
2026-05-04 15:43 49.48042 5.79426 36996 ft 402 kts 159°
2026-05-04 15:43 49.42933 5.82965 36991 ft 402 kts 160°
2026-05-04 15:44 49.37830 5.86489 36978 ft 402 kts 160°
2026-05-04 15:44 49.32730 5.90005 36984 ft 401 kts 160°
2026-05-04 15:45 49.27666 5.93487 36981 ft 401 kts 160°
2026-05-04 15:45 49.22559 5.96991 36991 ft 402 kts 160°
2026-05-04 15:46 49.17451 6.00489 36984 ft 402 kts 160°
2026-05-04 15:46 49.12356 6.03969 36988 ft 404 kts 160°
2026-05-04 15:46 49.09745 6.05743 36999 ft 417 kts 160°
2026-05-04 15:47 49.07058 6.07571 37001 ft 430 kts 160°
2026-05-04 15:47 49.04290 6.09457 37005 ft 442 kts 160°
2026-05-04 15:47 49.01440 6.11396 37005 ft 453 kts 159°
2026-05-04 15:47 48.98523 6.13375 37006 ft 464 kts 159°
2026-05-04 15:48 48.95540 6.15395 36996 ft 474 kts 159°
2026-05-04 15:48 48.86300 6.21644 37000 ft 492 kts 159°
2026-05-04 15:49 48.80025 6.25870 36998 ft 499 kts 159°
2026-05-04 15:49 48.73661 6.30147 36996 ft 501 kts 159°
2026-05-04 15:50 48.67288 6.34415 36998 ft 501 kts 159°
2026-05-04 15:50 48.60904 6.38680 37000 ft 501 kts 159°
2026-05-04 15:51 48.54525 6.42928 37004 ft 501 kts 159°
2026-05-04 15:51 48.48154 6.47161 37008 ft 501 kts 159°
2026-05-04 15:52 48.41764 6.51394 36990 ft 502 kts 160°
2026-05-04 15:52 48.35374 6.55616 36994 ft 502 kts 160°
2026-05-04 15:53 48.28974 6.59832 36996 ft 502 kts 160°
2026-05-04 15:53 48.22573 6.64038 36993 ft 502 kts 160°
2026-05-04 15:54 48.16067 6.67469 36987 ft 496 kts 171°
2026-05-04 15:54 48.09220 6.68171 36999 ft 478 kts 184°
2026-05-04 15:55 48.06057 6.68034 36992 ft 445 kts 184°
2026-05-04 15:55 48.03012 6.67926 37233 ft 433 kts 184°
2026-05-04 15:55 48.00022 6.67818 37894 ft 428 kts 184°
2026-05-04 15:55 47.97031 6.67699 38379 ft 430 kts 185°
2026-05-04 15:56 47.94040 6.67580 38819 ft 431 kts 185°
2026-05-04 15:56 47.91031 6.67469 39205 ft 433 kts 184°
2026-05-04 15:56 47.88018 6.67359 39597 ft 433 kts 184°
2026-05-04 15:56 47.84993 6.67244 40007 ft 434 kts 184°
2026-05-04 15:57 47.81970 6.67128 40411 ft 435 kts 184°
2026-05-04 15:57 47.78937 6.67014 40814 ft 436 kts 184°
2026-05-04 15:57 47.75897 6.66901 41221 ft 437 kts 184°
2026-05-04 15:57 47.72850 6.66787 41635 ft 438 kts 184°
2026-05-04 15:58 47.69838 6.66673 42056 ft 439 kts 184°
2026-05-04 15:58 47.66785 6.66559 42482 ft 439 kts 184°
2026-05-04 15:58 47.63730 6.66445 42893 ft 440 kts 184°
2026-05-04 15:58 47.60663 6.66330 43295 ft 441 kts 184°
2026-05-04 15:59 47.57596 6.66216 43730 ft 441 kts 184°
2026-05-04 15:59 47.54537 6.66103 44147 ft 441 kts 184°
2026-05-04 15:59 47.51458 6.65988 44548 ft 441 kts 184°
2026-05-04 15:59 47.48379 6.65873 44905 ft 442 kts 184°
2026-05-04 16:00 47.42211 6.64994 45008 ft 452 kts 196°
2026-05-04 16:00 47.36412 6.61228 45030 ft 463 kts 214°
2026-05-04 16:01 47.31403 6.55177 45057 ft 474 kts 221°
2026-05-04 16:01 47.26382 6.48869 45052 ft 475 kts 220°
2026-05-04 16:02 47.21328 6.42573 45043 ft 475 kts 221°
2026-05-04 16:03 47.14584 6.34161 45033 ft 478 kts 220°
2026-05-04 16:03 47.09416 6.28042 45026 ft 478 kts 214°
2026-05-04 16:04 47.03344 6.24020 45024 ft 481 kts 197°
2026-05-04 16:04 46.93334 6.22190 45045 ft 485 kts 187°
2026-05-04 16:05 46.86661 6.21280 45057 ft 484 kts 187°
2026-05-04 16:06 46.76589 6.19952 45052 ft 482 kts 187°
2026-05-04 16:07 46.63203 6.18180 45052 ft 483 kts 187°
2026-05-04 16:08 46.49851 6.16421 45050 ft 483 kts 187°
2026-05-04 16:09 46.33185 6.14239 45045 ft 480 kts 187°
2026-05-04 16:09 46.26498 6.13918 45039 ft 484 kts 176°
2026-05-04 16:10 46.19956 6.16371 45046 ft 491 kts 161°
2026-05-04 16:11 46.07280 6.23775 45051 ft 491 kts 161°
2026-05-04 16:12 45.88282 6.34794 45037 ft 490 kts 161°
2026-05-04 16:13 45.76165 6.43785 45044 ft 497 kts 147°
2026-05-04 16:14 45.64938 6.55233 45047 ft 497 kts 147°
2026-05-04 16:16 45.50868 6.69497 45058 ft 498 kts 148°
2026-05-04 16:17 45.36799 6.83650 44741 ft 490 kts 148°
2026-05-04 16:18 45.28624 6.91611 42824 ft 457 kts 155°
2026-05-04 16:18 45.25768 6.93416 42244 ft 442 kts 165°
2026-05-04 16:19 45.16946 6.95473 40556 ft 430 kts 179°
2026-05-04 16:19 45.10937 6.96441 39426 ft 437 kts 179°
2026-05-04 16:20 45.01897 6.97843 37639 ft 433 kts 180°
2026-05-04 16:20 44.95885 6.98785 36507 ft 435 kts 180°
2026-05-04 16:21 44.86855 7.00188 34771 ft 439 kts 180°
2026-05-04 16:22 44.80792 7.01129 33582 ft 438 kts 180°
2026-05-04 16:22 44.71692 7.03241 31842 ft 444 kts 176°
2026-05-04 16:23 44.62554 7.05408 30035 ft 442 kts 175°
2026-05-04 16:24 44.50697 7.08221 27735 ft 426 kts 175°
2026-05-04 16:25 44.44876 7.09613 26605 ft 421 kts 175°
2026-05-04 16:26 44.33426 7.12310 24403 ft 412 kts 174°
2026-05-04 16:26 44.25035 7.14271 22710 ft 402 kts 173°
2026-05-04 16:27 44.19608 7.15772 21543 ft 393 kts 164°
2026-05-04 16:28 44.11978 7.20046 19829 ft 375 kts 161°
2026-05-04 16:28 44.04809 7.24008 15266 ft 355 kts 161°
2026-05-04 16:29 43.95499 7.29150 14466 ft 363 kts 160°
2026-05-04 16:30 43.88549 7.32981 12964 ft 352 kts 160°
2026-05-04 16:31 43.84068 7.35450 12018 ft 346 kts 160°
2026-05-04 16:31 43.77612 7.38996 10678 ft 305 kts 160°
2026-05-04 16:32 43.72123 7.41999 9564 ft 270 kts 159°
2026-05-04 16:33 43.68632 7.43908 8848 ft 271 kts 159°
2026-05-04 16:33 43.65124 7.45823 8113 ft 271 kts 158°
2026-05-04 16:34 43.61636 7.47726 7387 ft 268 kts 158°
2026-05-04 16:34 43.59904 7.48670 7030 ft 267 kts 157°
2026-05-04 16:35 43.54818 7.51437 6021 ft 249 kts 156°
2026-05-04 16:35 43.50093 7.54007 6025 ft 247 kts 156°
2026-05-04 16:36 43.48489 7.54878 6031 ft 248 kts 156°
2026-05-04 16:36 43.45294 7.56610 6038 ft 248 kts 156°
2026-05-04 16:37 43.42385 7.59008 6003 ft 248 kts 128°
2026-05-04 16:37 43.41666 7.61155 6005 ft 246 kts 104°
2026-05-04 16:37 43.42452 7.65653 6016 ft 257 kts 56°
2026-05-04 16:38 43.45716 7.67639 6008 ft 274 kts 359°
2026-05-04 16:39 43.51151 7.64958 6042 ft 275 kts 339°
2026-05-04 16:39 43.54690 7.62934 6003 ft 280 kts 329°
2026-05-04 16:40 43.56431 7.58455 5994 ft 270 kts 268°
2026-05-04 16:40 43.54781 7.54071 6027 ft 261 kts 213°
2026-05-04 16:41 43.51432 7.53295 6016 ft 246 kts 161°
2026-05-04 16:41 43.46731 7.55823 6040 ft 242 kts 155°
2026-05-04 16:42 43.42346 7.59073 6006 ft 244 kts 127°
2026-05-04 16:43 43.41701 7.63599 6005 ft 250 kts 79°
2026-05-04 16:43 43.43955 7.67223 6000 ft 266 kts 26°
2026-05-04 16:43 43.45787 7.67634 6007 ft 277 kts 359°
2026-05-04 16:44 43.53036 7.63943 6032 ft 274 kts 340°
2026-05-04 16:45 43.56021 7.60837 5969 ft 281 kts 295°
2026-05-04 16:46 43.54648 7.53941 5995 ft 259 kts 208°
2026-05-04 16:46 43.51291 7.53358 6025 ft 243 kts 160°
2026-05-04 16:47 43.48113 7.54945 6011 ft 247 kts 166°
2026-05-04 16:47 43.44752 7.53622 4777 ft 288 kts 220°
2026-05-04 16:48 43.43104 7.46190 4037 ft 262 kts 263°
2026-05-04 16:48 43.42898 7.43644 4029 ft 269 kts 263°
2026-05-04 16:49 43.42446 7.38482 4034 ft 277 kts 262°
2026-05-04 16:49 43.42000 7.33292 4033 ft 271 kts 263°
2026-05-04 16:50 43.41551 7.28126 4027 ft 270 kts 262°
2026-05-04 16:50 43.41106 7.23047 4025 ft 274 kts 262°
2026-05-04 16:51 43.40651 7.17869 4035 ft 277 kts 262°
2026-05-04 16:51 43.40499 7.16143 4039 ft 269 kts 262°
2026-05-04 16:51 43.40061 7.11180 4044 ft 260 kts 261°
2026-05-04 16:52 43.39547 7.05404 4045 ft 261 kts 262°
2026-05-04 16:52 43.39398 7.03730 4045 ft 260 kts 261°
2026-05-04 16:53 43.39436 6.98755 3989 ft 265 kts 292°
2026-05-04 16:53 43.43890 6.95617 4073 ft 251 kts
2026-05-04 16:54 43.45567 6.95576 4055 ft 229 kts
2026-05-04 16:55 43.50174 6.99853 4063 ft 206 kts 49°
2026-05-04 16:55 43.52230 7.02654 3591 ft 207 kts 48°
2026-05-04 16:56 43.54234 7.05390 3052 ft 198 kts 49°
2026-05-04 16:56 43.57028 7.09211 2290 ft 183 kts 49°
2026-05-04 16:57 43.57933 7.10453 2044 ft 182 kts 49°
2026-05-04 16:57 43.59728 7.12914 1556 ft 182 kts 49°
2026-05-04 16:58 43.61773 7.15707 969 ft 111 kts 52°
2026-05-04 16:58 43.62323 7.16462 846 ft 111 kts 51°
2026-05-04 16:59 43.63444 7.17957 619 ft 112 kts 51°
2026-05-04 17:00 43.65581 7.20947 26 ft 98 kts 53°
2026-05-04 17:00 43.66504 7.22222 19 ft 41 kts 44°
2026-05-04 17:01 43.66823 7.22665 18 ft 25 kts 44°
2026-05-04 17:01 43.66969 7.22733 20 ft 6 kts 326°
2026-05-04 17:02 43.67059 7.22664 18 ft 8 kts 33°
2026-05-04 17:02 43.67128 7.22628 18 ft 5 kts 301°
2026-05-04 17:03 43.67148 7.22592 18 ft 3 kts 333°
2026-05-04 17:03 43.67158 7.22581 18 ft 1 kts 313°
2026-05-04 17:03 43.67159 7.22581 18 ft 0 kts 313°
2026-05-04 17:04 43.67158 7.22581 18 ft 0 kts 313°
2026-05-04 17:09 43.67158 7.22582 18 ft 0 kts 313°
2026-05-04 17:17 43.67157 7.22582 18 ft 0 kts 313°
2026-05-04 17:18 43.67157 7.22583 18 ft 0 kts 313°
2026-05-04 17:28 43.67157 7.22584 18 ft 0 kts 313°